Home > Weather > Owen Sound > Past weeks

Flag for Canada Past Weather in Owen Sound, Ontario, Canada — Yesterday and Last 2 Weeks

Now
61 °F

Passing clouds.


Feels Like: 61 °F
Forecast: 59 / 77 °F
Wind: 5 mph from South

Location: Wiarton

Current Time: Aug 26, 2016 at 6:40:06 AM

Latest Report: Aug 26, 2016 at 6:00 AM


Visibility: 15 mi

Pressure: 30.01 "Hg

Humidity: 94%

Dew Point: 59 °F

Location of Owen SoundLocation

Past Weather in Owen Sound — Graph

°F

Owen Sound Temperature Yesterday

Maximum temperature yesterday: 77 °F (at 2:00 PM)
Minimum temperature yesterday: 68 °F (at 10:00 PM)
Average temperature yesterday: 72 °F

High & Low Weather Summary for the Past Weeks

 TemperatureHumidityPressure
High90 °F (Aug 11, 12:00 PM)100% (Aug 12, 4:00 PM)30.22 "Hg (Aug 12, 4:00 PM)
Low48 °F (Aug 22, 4:00 AM)46% (Aug 11, 12:00 PM)29.50 "Hg (Aug 21, 3:00 AM)
Average70 °F83%29.95 "Hg
* Reported Aug 11 5:00 AM — Aug 26 5:00 AM, Owen Sound, Weather by CustomWeather, © 2016

Note: Actual official high and low records may vary slightly from our data, if they occured in-between our weather recording intervals... More about our weather records

Advertising

Owen Sound Weather History for the Previous 24 Hours

Scroll right to see more
 ConditionsComfort  
Time TempWeatherWind HumidityBarometerVisibility
5:00 AM
Fri, Aug 26
59 °FClear.3 mph100%30.01 "Hg15 mi
4:00 AM63 °FPassing clouds.3 mph94%30.00 "Hg15 mi
3:00 AM68 °FPassing clouds.2 mph78%29.99 "Hg15 mi
2:00 AM68 °FFog.3 mph83%29.98 "Hg15 mi
1:00 AM70 °FFog.3 mph100%29.97 "Hg5 mi
12:00 AM68 °FFog.2 mph100%29.96 "Hg4 mi
11:00 PM
Thu, Aug 25
68 °FFog.3 mph100%29.95 "Hg4 mi
10:46 PM68 °FFog.2 mph100%29.95 "Hg4 mi
10:00 PM68 °FFog.3 mph100%29.94 "Hg4 mi
9:00 PM70 °FPassing clouds.5 mph94%29.95 "Hg12 mi
8:00 PM72 °FPartly sunny.3 mph88%29.94 "Hg12 mi
7:00 PM73 °FPartly sunny.5 mph89%29.93 "Hg12 mi
6:00 PM75 °FScattered clouds.6 mph83%29.92 "Hg15 mi
4:00 PM77 °FBroken clouds.8 mph74%29.92 "Hg15 mi
3:00 PM75 °FMostly cloudy.14 mph78%29.93 "Hg15 mi
2:00 PM77 °FPartly sunny.8 mph79%29.92 "Hg15 mi
1:00 PM75 °FBroken clouds.6 mph83%29.91 "Hg15 mi
12:00 PM75 °FBroken clouds.6 mph78%29.93 "Hg15 mi
11:00 AM75 °FBroken clouds.8 mph78%29.94 "Hg15 mi
10:00 AM73 °FPartly sunny.7 mph89%29.93 "Hg15 mi
9:00 AM72 °FLow clouds.6 mph94%29.93 "Hg15 mi
8:00 AM72 °FFog.7 mph94%29.91 "Hg6 mi
7:00 AM70 °FFog.7 mph100%29.91 "Hg6 mi
6:00 AM72 °FFog.8 mph100%29.89 "Hg6 mi
Weather by CustomWeather, © 2016

See weather overviewHow to use our weather pages